TimeCET,TemperatureF,Dew PointF,Humidity,Sea Level PressureIn,VisibilityMPH,Wind Direction,Wind SpeedMPH,Gust SpeedMPH,PrecipitationIn,Events,Conditions,WindDirDegrees,DateUTC
12:00 AM,44.6,41.0,87,30.01,3.7,Variable,2.3,-,N/A,,Unknown,0,2012-11-19 23:00:00
12:30 AM,42.8,41.0,93,30.01,5.0,SE,4.6,-,N/A,,Unknown,130,2012-11-19 23:30:00
1:00 AM,42.8,41.0,93,30.01,6.2,SE,3.5,-,N/A,,Unknown,140,2012-11-20 00:00:00
1:30 AM,41.0,39.2,93,30.01,6.2,SE,3.5,-,N/A,,Unknown,130,2012-11-20 00:30:00
2:00 AM,41.0,39.2,93,30.01,6.2,SE,3.5,-,N/A,,Unknown,130,2012-11-20 01:00:00
2:30 AM,41.0,39.2,93,30.01,6.2,SE,3.5,-,N/A,,Unknown,140,2012-11-20 01:30:00
3:00 AM,39.2,37.4,93,30.01,6.2,SSE,3.5,-,N/A,,Mist,150,2012-11-20 02:00:00
3:30 AM,39.2,37.4,93,30.01,6.2,SSE,2.3,-,N/A,,Unknown,150,2012-11-20 02:30:00
4:00 AM,39.2,37.4,93,30.01,6.2,SE,2.3,-,N/A,,Unknown,130,2012-11-20 03:00:00
4:30 AM,39.2,37.4,93,29.98,6.2,SE,3.5,-,N/A,,Unknown,140,2012-11-20 03:30:00
5:00 AM,37.4,37.4,100,29.98,6.2,SE,3.5,-,N/A,,Unknown,130,2012-11-20 04:00:00
5:30 AM,37.4,37.4,100,29.98,6.2,SE,3.5,-,N/A,,Unknown,140,2012-11-20 04:30:00
6:00 AM,39.2,39.2,100,29.98,-9999.0,ESE,4.6,-,N/A,,Clear,120,2012-11-20 05:00:00
6:30 AM,39.2,37.4,93,29.98,-9999.0,SE,4.6,-,N/A,,Clear,130,2012-11-20 05:30:00
7:00 AM,41.0,37.4,87,29.98,-9999.0,South,3.5,-,N/A,,Clear,170,2012-11-20 06:00:00
7:30 AM,39.2,37.4,93,30.01,-9999.0,SSE,2.3,-,N/A,,Clear,160,2012-11-20 06:30:00
8:00 AM,37.4,35.6,93,30.01,-9999.0,ESE,4.6,-,N/A,,Clear,120,2012-11-20 07:00:00
8:30 AM,41.0,37.4,87,30.01,-9999.0,SE,5.8,-,N/A,,Clear,130,2012-11-20 07:30:00
9:00 AM,44.6,39.2,81,30.01,-9999.0,SE,4.6,-,N/A,,Clear,130,2012-11-20 08:00:00
9:30 AM,48.2,39.2,71,30.01,-9999.0,SE,5.8,-,N/A,,Clear,130,2012-11-20 08:30:00
10:00 AM,50.0,41.0,71,29.98,-9999.0,SE,5.8,-,N/A,,Clear,130,2012-11-20 09:00:00
10:30 AM,51.8,41.0,67,29.98,-9999.0,SE,4.6,-,N/A,,Clear,130,2012-11-20 09:30:00
11:00 AM,55.4,42.8,63,29.98,-9999.0,SE,3.5,-,N/A,,Clear,140,2012-11-20 10:00:00
11:30 AM,59.0,42.8,55,29.98,-9999.0,SSE,3.5,-,N/A,,Clear,150,2012-11-20 10:30:00
12:00 PM,60.8,42.8,52,29.98,-9999.0,Variable,1.2,-,N/A,,Clear,0,2012-11-20 11:00:00
12:30 PM,62.6,42.8,48,29.95,-9999.0,SE,3.5,-,N/A,,Clear,130,2012-11-20 11:30:00
1:00 PM,64.4,41.0,42,29.95,-9999.0,ESE,3.5,-,N/A,,Clear,120,2012-11-20 12:00:00
1:30 PM,66.2,39.2,37,29.95,-9999.0,SE,3.5,-,N/A,,Clear,130,2012-11-20 12:30:00
2:00 PM,66.2,39.2,37,29.92,-9999.0,East,4.6,-,N/A,,Clear,100,2012-11-20 13:00:00
2:30 PM,66.2,41.0,40,29.95,-9999.0,Variable,2.3,-,N/A,,Clear,0,2012-11-20 13:30:00
3:00 PM,66.2,39.2,37,29.92,-9999.0,Variable,2.3,-,N/A,,Clear,0,2012-11-20 14:00:00
3:30 PM,66.2,37.4,35,29.92,-9999.0,Variable,3.5,-,N/A,,Clear,0,2012-11-20 14:30:00
4:00 PM,66.2,39.2,37,29.92,-9999.0,Variable,3.5,-,N/A,,Clear,0,2012-11-20 15:00:00
4:30 PM,64.4,41.0,42,29.92,-9999.0,ENE,4.6,-,N/A,,Clear,60,2012-11-20 15:30:00
5:00 PM,62.6,41.0,45,29.92,-9999.0,East,3.5,-,N/A,,Clear,100,2012-11-20 16:00:00
5:30 PM,59.0,42.8,55,29.92,-9999.0,East,4.6,-,N/A,,Clear,100,2012-11-20 16:30:00
6:00 PM,57.2,42.8,59,29.92,-9999.0,ESE,4.6,-,N/A,,Clear,110,2012-11-20 17:00:00
6:30 PM,53.6,42.8,67,29.92,-9999.0,East,4.6,-,N/A,,Clear,100,2012-11-20 17:30:00
7:00 PM,53.6,42.8,67,29.92,-9999.0,ESE,5.8,-,N/A,,Clear,110,2012-11-20 18:00:00
7:30 PM,55.4,42.8,63,29.92,-9999.0,SE,3.5,-,N/A,,Clear,130,2012-11-20 18:30:00
8:00 PM,53.6,42.8,67,29.92,-9999.0,ESE,3.5,-,N/A,,Clear,120,2012-11-20 19:00:00
8:30 PM,53.6,42.8,67,29.89,-9999.0,SE,6.9,-,N/A,,Clear,130,2012-11-20 19:30:00
9:00 PM,53.6,44.6,72,29.89,-9999.0,ESE,5.8,-,N/A,,Clear,120,2012-11-20 20:00:00
9:30 PM,53.6,44.6,72,29.89,6.2,ESE,5.8,-,N/A,,Unknown,120,2012-11-20 20:30:00
10:00 PM,53.6,44.6,72,29.89,6.2,Variable,2.3,-,N/A,,Unknown,0,2012-11-20 21:00:00
10:30 PM,51.8,44.6,76,29.89,6.2,Calm,Calm,-,N/A,,Unknown,0,2012-11-20 21:30:00
11:00 PM,51.8,44.6,76,29.86,6.2,SSE,2.3,-,N/A,,Unknown,150,2012-11-20 22:00:00
11:30 PM,51.8,42.8,71,29.86,6.2,South,3.5,-,N/A,,Unknown,170,2012-11-20 22:30:00